Showing default

IRIDIUM 118, 42807

Orbit data source: Space-Track

IRIDIUM 118, 42807 is a payload satellite owned by Iridium (US) in LEO that was launched on Sun, 25 Jun 2017 UTC via an FALCON 9 launch vehicle from the Air Force Western Test Range (AFWTR). Payload-class satellites include a variety of spacecraft equipped with specific instruments for various scientific and technological missions. These include communications satellites like Starlink; space stations such as the ISS; scientific satellites like the Hubble; Earth observation satellites from companies like Planet Labs, Umbra, and HawkEye 360; GPS; miniature CubeSats for education and research; and military/defense satellites.

Loading next visibility...
Identifier
42807, 2017-039E
Orbit
LEO
Last TLE update
13 hours ago
Origin
Manufacturer
OATK SSG Gilbert
Mission
Operational Commercial Communications
Bus & Motor
ELITEBUS, Unknown motor
Mass
860 kg wet, 700 kg dry
Launch date (UTC)
2017-06-25 (8 years ago)
Launch vehicle
FALCON 9
Launch site
Air Force Western Test Range (AFWTR)
Object type
Payload
Rocket body
Debris
Shape & HBR
Trap Box + 2 Pan, 9.4 m
Radar Cross Section
14.423 m², Large (>1 m²)

Expand to show TLE details & history

TLE from 13 hours ago
0 IRIDIUM 118
1 42807U 17039E   25186.49424170  .00000077  00000-0  20272-4 0  9995
2 42807  86.3993 138.5730 0002483  87.5086 272.6394 14.34216311420251
Epoch: 2025-07-05T11:51Z
TLE epoch observation values (Epoch: 2025-07-05T11:51:42.482Z)
Latitude
-0.00005°
Longitude
36.91451°
Altitude
780.642 km
Speed
7.464 km/s
True Right ascension
09h 14m 17s
True Declination
0° 00' 00"
Sunlit
Object was in daylight at epoch
Visualization orbit readout
Latitude
1.68455°
Longitude
36.78673°
Altitude
780.33 km
Speed
7.464 km/s
Apparent Right ascension
06h 25m 27s
Apparent Declination
-31° 27' 50"
Sunlit
Object is in daylight
Visualization observer readout
Local Sidereal Time
13:12:33
Azimuth
250.933° W
Elevation
-27.935°
Doppler factor
1
Orbital elements
Apogee altitude
776.412 km
Perigee altitude
772.86 km
Semi-major axis
7,152.773 km
Eccentricity
0.00025
Inclination
86.3993°
RAAN
138.573°
Arg. of periapsis
87.5086°
True anomaly
Unknown
Mean anomaly
272.6394°
Eccentric anomaly
Unknown
Mean motion
3.58783 °/min
Orbital period
100.34 mins
BSTAR
0.000020272
Loading maneuver chart data...
Loading SW <> Apogee altitude chart data...
Loading historical data...
Loading historical data...
Loading historical data...
Loading historical data...
Loading historical data...
Loading historical data...
Loading historical data...

IRIDIUM 118 Visibility forecast

Observer location: undefined°, undefined°

Span
Click to sort rows by Start time (UTC) header in descending order
Start Az.
Max El. time (UTC)
Max El. Az.
Max El.
End time (UTC)
End Az.
9 mins2025-07-06 08:31:54.613Z11.166° NNE2025-07-06 08:35:54.613Z71.242° E37.026°2025-07-06 08:40:54.613Z158.22° S
4 mins2025-07-06 10:14:54.613Z302.381° NW2025-07-06 10:16:54.613Z274.318° WNW16.793°2025-07-06 10:18:54.613Z248.657° W
8 mins2025-07-06 21:28:54.613Z189.95° SSW2025-07-06 21:31:54.613Z240.237° WSW43.766°2025-07-06 21:36:54.613Z358.629° N
|